This demonstration page uses our WeatherBlox Daily Observations layout. Learn more.

Hourly Observations for November 2, 2020

Temp ( °F °C ) Dew Point ( °F °C ) Humidity (%) Winds ( mph kmh ) Pressure ( in mb ) Visibility ( mi km ) Precip ( " mm )
12:15 am 00:15 Clear 36 2 23 -5 60 60 WNW 16 26 30.03 1017 10 16.0934 0 0
12:35 am 00:35 Clear 36 2 23 -5 60 60 WNW 24 39 30.02 1017 10 16.0934 0 0
12:55 am 00:55 Clear 36 2 23 -5 60 60 WNW 23 37 30.02 1017 10 16.0934 0 0
1:15 am 01:15 Clear 36 2 23 -5 60 60 NW 21 33 30.02 1017 10 16.0934 0 0
1:35 am 01:35 Clear 36 2 23 -5 60 60 WNW 18 30 30.02 1017 10 16.0934 0 0
1:55 am 01:55 Clear 36 2 25 -4 65 65 WNW 22 35 30.02 1017 10 16.0934 0 0
2:15 am 02:15 Clear 36 2 25 -4 65 65 NW 22 35 30.03 1017 10 16.0934 0 0
2:35 am 02:35 Partly Cloudy 36 2 25 -4 65 65 WNW 23 37 30.04 1017 10 16.0934 0 0
2:55 am 02:55 Mostly Cloudy 36 2 25 -4 65 65 WNW 16 26 30.03 1017 10 16.0934 0 0
3:15 am 03:15 Partly Cloudy 36 2 25 -4 65 65 WNW 20 31 30.03 1017 10 16.0934 0 0
3:35 am 03:35 Mostly Cloudy 36 2 25 -4 65 65 WNW 10 17 30.03 1017 10 16.0934 0 0
3:55 am 03:55 Cloudy 36 2 25 -4 65 65 NW 20 31 30.03 1017 10 16.0934 0 0
4:15 am 04:15 Partly Cloudy 36 2 25 -4 65 65 WNW 23 37 30.03 1017 10 16.0934 0 0
4:35 am 04:35 Mostly Cloudy 36 2 25 -4 65 65 WNW 24 39 30.04 1017 10 16.0934 0 0
4:55 am 04:55 Mostly Cloudy 36 2 25 -4 65 65 WNW 23 37 30.03 1017 10 16.0934 0 0
5:15 am 05:15 Partly Cloudy 36 2 27 -3 70 70 WNW 24 39 30.03 1017 10 16.0934 0 0
5:35 am 05:35 Mostly Cloudy 37 3 27 -3 65 65 NW 24 39 30.05 1018 10 16.0934 0 0
5:55 am 05:55 Mostly Cloudy 37 3 27 -3 65 65 WNW 29 46 30.05 1018 10 16.0934 0 0
6:15 am 06:15 Mostly Cloudy 37 3 27 -3 65 65 WNW 20 31 30.07 1018 10 16.0934 0 0
6:35 am 06:35 Cloudy 37 3 27 -3 65 65 WNW 16 26 30.08 1019 10 16.0934 0 0
6:55 am 06:55 Cloudy 37 3 27 -3 65 65 WNW 20 31 30.08 1019 10 16.0934 0 0
7:15 am 07:15 Cloudy 37 3 27 -3 65 65 NW 22 35 30.09 1019 10 16.0934 0 0
7:35 am 07:35 Cloudy 37 3 27 -3 65 65 NW 23 37 30.1 1019 10 16.0934 0 0
7:55 am 07:55 Cloudy 37 3 27 -3 65 65 NW 21 33 30.11 1020 10 16.0934 0 0
8:15 am 08:15 Cloudy 37 3 27 -3 65 65 NW 26 43 30.12 1020 10 16.0934 0 0
8:35 am 08:35 Cloudy 37 3 27 -3 65 65 NW 31 50 30.12 1020 10 16.0934 0 0
8:55 am 08:55 Cloudy 41 5 27 -3 57 57 NW 38 61 30.12 1020 10 16.0934 0 0
9:15 am 09:15 Mostly Cloudy N/A N/A N/A NW 38 61 N/A 10 16.0934 0 0
9:35 am 09:35 Mostly Cloudy N/A N/A N/A NW 32 52 N/A 10 16.0934 0 0
9:55 am 09:55 Partly Cloudy N/A N/A N/A NW 29 46 N/A 10 16.0934 0 0
10:15 am 10:15 Sunny 43 6 27 -3 53 53 NW 29 46 30.13 1020 10 16.0934 0 0
10:35 am 10:35 Partly Cloudy 43 6 27 -3 53 53 NNW 26 43 30.13 1020 10 16.0934 0 0
10:55 am 10:55 Partly Cloudy N/A N/A N/A NW 33 54 N/A 10 16.0934 0 0
11:15 am 11:15 Sunny 43 6 23 -5 46 46 NNW 33 54 30.13 1020 10 16.0934 0 0
11:35 am 11:35 Partly Cloudy 43 6 27 -3 53 53 NW 29 46 30.14 1021 10 16.0934 0 0
11:55 am 11:55 Partly Cloudy 45 7 27 -3 49 49 NW 23 37 30.14 1021 10 16.0934 0 0
12:15 pm 12:15 Partly Cloudy 45 7 27 -3 49 49 WNW 22 35 30.13 1020 10 16.0934 0 0
12:35 pm 12:35 Sunny 45 7 27 -3 49 49 NW 24 39 30.12 1020 10 16.0934 0 0
12:55 pm 12:55 Sunny 45 7 27 -3 49 49 NW 17 28 30.11 1020 10 16.0934 0 0
1:15 pm 13:15 Sunny 46 8 25 -4 43 43 WNW 21 33 30.11 1020 10 16.0934 0 0
1:35 pm 13:35 Sunny 46 8 27 -3 46 46 WNW 17 28 30.11 1020 10 16.0934 0 0
1:55 pm 13:55 Sunny 46 8 27 -3 46 46 WNW 17 28 30.11 1020 10 16.0934 0 0
2:15 pm 14:15 Sunny 46 8 27 -3 46 46 WNW 16 26 30.11 1020 10 16.0934 0 0
2:35 pm 14:35 Sunny 46 8 25 -4 43 43 WNW 14 22 30.1 1019 10 16.0934 0 0
2:55 pm 14:55 Sunny 46 8 25 -4 43 43 WNW 10 17 30.1 1019 10 16.0934 0 0
3:15 pm 15:15 Sunny 46 8 23 -5 40 40 WNW 13 20 30.1 1019 10 16.0934 0 0
5:15 pm 17:15 Clear 45 7 19 -7 37 37 WNW 13 20 30.11 1020 10 16.0934 0 0
5:35 pm 17:35 Clear 43 6 19 -7 39 39 W 9 15 30.11 1020 10 16.0934 0 0
5:55 pm 17:55 Clear 43 6 19 -7 39 39 WSW 3 6 30.11 1020 10 16.0934 0 0
6:15 pm 18:15 Clear 43 6 19 -7 39 39 SW 5 7 30.12 1020 10 16.0934 0 0
6:35 pm 18:35 Clear 43 6 19 -7 39 39 WSW 5 7 30.12 1020 10 16.0934 0 0
6:55 pm 18:55 Clear 41 5 19 -7 42 42 SW 3 6 30.12 1020 10 16.0934 0 0
7:15 pm 19:15 Clear 41 5 19 -7 42 42 Calm 30.12 1020 10 16.0934 0 0
7:35 pm 19:35 Clear 41 5 21 -6 45 45 SW 6 9 30.11 1020 10 16.0934 0 0
7:55 pm 19:55 Clear 41 5 21 -6 45 45 SSW 5 7 30.11 1020 10 16.0934 0 0
8:15 pm 20:15 Clear 41 5 21 -6 45 45 SSW 5 7 30.11 1020 10 16.0934 0 0
8:35 pm 20:35 Clear 41 5 21 -6 45 45 SSW 6 9 30.1 1019 10 16.0934 0 0
8:55 pm 20:55 Clear 41 5 19 -7 42 42 WSW 6 9 30.1 1019 10 16.0934 0 0
9:15 pm 21:15 Clear 37 3 23 -5 56 56 W 7 11 30.1 1019 10 16.0934 0 0
9:35 pm 21:35 Clear 41 5 21 -6 45 45 WSW 7 11 30.09 1019 10 16.0934 0 0
9:55 pm 21:55 Clear 41 5 21 -6 45 45 WSW 7 11 30.08 1019 10 16.0934 0 0
10:15 pm 22:15 Clear 41 5 19 -7 42 42 WSW 8 13 30.07 1018 10 16.0934 0 0
10:35 pm 22:35 Clear 41 5 19 -7 42 42 SSW 5 7 30.07 1018 10 16.0934 0 0
10:55 pm 22:55 Clear 41 5 19 -7 42 42 SW 8 13 30.07 1018 10 16.0934 0 0
11:15 pm 23:15 Clear 41 5 19 -7 42 42 WSW 7 11 30.07 1018 10 16.0934 0 0
11:35 pm 23:35 Clear 41 5 19 -7 42 42 SW 8 13 30.06 1018 10 16.0934 0 0
11:55 pm 23:55 Clear 41 5 19 -7 42 42 SW 6 9 30.05 1018 10 16.0934 0 0

Powered by AerisWeather